AKDT,Max TemperatureF,Mean TemperatureF,Min TemperatureF,Max Dew PointF,MeanDew PointF,Min DewpointF,Max Humidity, Mean Humidity, Min Humidity, Max Sea Level PressureIn, Mean Sea Level PressureIn, Min Sea Level PressureIn, Max VisibilityMiles, Mean VisibilityMiles, Min VisibilityMiles, Max Wind SpeedMPH, Mean Wind SpeedMPH, Max Gust SpeedMPH,PrecipitationIn, CloudCover, Events, WindDirDegrees
2010-10-1,55,48,41,48,43,38,100,83,61,29.81,29.66,29.55,10,10,9,17,4,23,0.18,6,Rain,156
2010-10-2,52,49,46,43,40,36,83,72,54,29.94,29.85,29.68,10,10,10,33,24,45,0.00,7,Rain,207
2010-10-3,51,46,43,43,42,38,96,86,66,29.92,29.83,29.77,10,10,7,15,5,21,0.09,6,Rain,220
2010-10-4,48,46,42,39,37,35,85,71,59,30.04,29.97,29.84,10,10,10,23,14,32,0.00,4,Rain,199
2010-10-5,55,44,35,42,37,34,100,86,50,29.86,29.47,29.27,10,6,2,31,5,46,1.32,8,Rain,192
2010-10-6,51,48,45,40,39,36,80,73,59,29.84,29.74,29.64,10,10,10,28,17,33,0.00,6,,206
2010-10-7,55,46,37,39,36,29,93,74,37,29.84,29.65,29.47,10,10,1,8,4,,0.00,3,,46
2010-10-8,53,48,43,40,37,27,82,69,37,29.83,29.70,29.42,10,10,10,24,14,33,0.00,5,Rain,200
2010-10-9,51,46,42,44,39,30,96,80,44,29.41,29.32,29.16,10,8,4,37,11,44,0.53,8,Rain,36
2010-10-10,52,48,44,44,41,37,97,80,59,29.70,29.36,29.02,10,10,4,31,12,38,0.11,8,Rain,204
2010-10-11,50,44,41,41,39,37,93,78,64,29.80,29.77,29.73,10,10,10,25,9,33,0.00,7,,211
2010-10-12,48,44,39,41,38,33,100,82,54,29.82,29.57,29.33,10,9,4,43,6,54,0.55,8,Rain,20
2010-10-13,52,48,44,41,38,30,82,70,44,29.86,29.70,29.44,10,10,10,38,24,48,0.02,6,Rain,212
2010-10-14,46,44,43,40,37,32,89,77,56,29.81,29.57,29.37,10,10,8,18,9,21,0.18,8,Rain,214
2010-10-15,45,43,41,40,38,36,93,81,71,29.93,29.89,29.81,10,10,9,23,16,31,0.04,7,Rain,189
2010-10-16,45,40,37,40,38,36,100,91,76,29.85,29.80,29.77,10,9,3,10,2,,0.30,8,Rain,199
2010-10-17,44,42,41,43,41,39,100,95,86,29.79,29.55,29.34,10,8,4,6,1,,0.50,8,Rain,338
2010-10-18,48,44,42,43,39,36,100,80,68,29.80,29.51,29.26,10,9,5,34,12,45,0.14,6,Rain,210
2010-10-19,46,44,42,39,37,36,89,77,68,29.97,29.93,29.83,10,10,10,22,15,32,0.00,7,,204
2010-10-20,46,40,32,39,36,29,93,85,61,29.96,29.87,29.79,10,10,1,6,1,,0.00,5,,205
2010-10-21,44,36,30,34,31,26,96,85,58,29.99,29.94,29.87,10,10,10,6,1,,0.00,5,,57
2010-10-22,46,44,42,27,24,21,51,44,37,29.86,29.76,29.70,10,10,10,21,15,36,0.00,3,,25
2010-10-23,46,44,43,33,30,28,61,56,52,29.73,29.64,29.48,10,10,10,12,7,24,0.00,7,Rain,23
2010-10-24,51,48,46,30,27,24,52,44,38,29.46,29.39,29.37,10,10,10,22,14,33,0.00,6,,26
2010-10-25,48,44,39,33,29,25,77,54,44,29.58,29.49,29.42,10,10,10,15,8,17,0.00,8,,30
2010-10-26,43,40,37,40,36,32,100,86,76,29.99,29.81,29.58,10,10,6,4,1,,0.06,8,Rain,40
2010-10-27,41,39,37,38,38,37,100,94,87,30.20,30.14,30.01,10,10,10,4,0,,0.01,8,Rain,210
2010-10-28,42,40,37,38,36,31,100,88,65,30.10,29.85,29.46,10,10,10,26,3,36,0.01,8,Rain,182
2010-10-29,48,40,35,39,35,30,100,81,58,29.42,29.19,29.05,10,8,2,33,17,45,0.59,7,Rain,192
2010-10-30,42,38,35,36,34,31,97,86,65,29.44,29.33,29.25,10,10,9,28,4,32,0.02,7,Rain,191
2010-10-31,45,41,37,36,33,23,89,74,42,29.48,29.36,29.05,10,10,10,16,8,25,0.01,8,Rain,55